TimeMST,TemperatureF,Dew PointF,Humidity,Sea Level PressureIn,VisibilityMPH,Wind Direction,Wind SpeedMPH,Gust SpeedMPH,PrecipitationIn,Events,Conditions,WindDirDegrees,DateUTC
12:53 AM,19.9,12.0,71,30.40,10.0,North,10.4,-,N/A,,Overcast,350,2013-01-03 07:53:00
1:53 AM,18.0,12.0,78,30.42,10.0,North,12.7,-,N/A,,Overcast,350,2013-01-03 08:53:00
2:53 AM,18.0,12.0,78,30.43,10.0,NNW,9.2,-,N/A,,Overcast,340,2013-01-03 09:53:00
3:53 AM,15.1,9.0,77,30.43,10.0,NNW,12.7,-,N/A,,Mostly Cloudy,330,2013-01-03 10:53:00
4:53 AM,10.9,6.1,81,30.46,10.0,WNW,10.4,-,N/A,,Clear,290,2013-01-03 11:53:00
5:53 AM,5.0,3.0,92,30.48,10.0,West,6.9,-,N/A,,Clear,270,2013-01-03 12:53:00
6:53 AM,5.0,1.0,84,30.48,10.0,SW,9.2,-,N/A,,Clear,230,2013-01-03 13:53:00
7:53 AM,5.0,-0.9,76,30.48,10.0,West,9.2,-,N/A,,Clear,270,2013-01-03 14:53:00
8:53 AM,10.0,1.9,70,30.47,10.0,West,15.0,-,N/A,,Clear,270,2013-01-03 15:53:00
9:53 AM,14.0,5.0,67,30.45,10.0,West,15.0,-,N/A,,Clear,270,2013-01-03 16:53:00
10:53 AM,16.0,7.0,68,30.43,10.0,WSW,12.7,-,N/A,,Clear,250,2013-01-03 17:53:00
11:53 AM,19.9,8.1,60,30.39,10.0,WSW,11.5,-,N/A,,Clear,250,2013-01-03 18:53:00
12:53 PM,21.0,10.0,63,30.35,10.0,WSW,10.4,-,N/A,,Clear,240,2013-01-03 19:53:00
1:53 PM,23.0,10.9,60,30.33,10.0,WSW,10.4,-,N/A,,Clear,250,2013-01-03 20:53:00
2:53 PM,25.0,10.9,55,30.33,10.0,SW,6.9,-,N/A,,Clear,230,2013-01-03 21:53:00
3:53 PM,21.9,9.0,58,30.35,10.0,SW,9.2,-,N/A,,Clear,230,2013-01-03 22:53:00
4:53 PM,19.0,5.0,54,30.38,10.0,SW,9.2,-,N/A,,Clear,230,2013-01-03 23:53:00
5:53 PM,17.1,3.0,54,30.42,10.0,SW,10.4,-,N/A,,Clear,230,2013-01-04 00:53:00
6:53 PM,14.0,1.0,56,30.42,10.0,WSW,8.1,-,N/A,,Clear,240,2013-01-04 01:53:00
7:53 PM,19.0,3.0,50,30.40,10.0,WSW,12.7,-,N/A,,Clear,240,2013-01-04 02:53:00
8:53 PM,16.0,1.0,52,30.40,10.0,WSW,11.5,-,N/A,,Clear,240,2013-01-04 03:53:00
9:53 PM,14.0,1.0,56,30.40,10.0,SW,9.2,-,N/A,,Clear,230,2013-01-04 04:53:00
10:53 PM,16.0,1.0,52,30.38,10.0,SW,12.7,-,N/A,,Clear,230,2013-01-04 05:53:00
11:53 PM,19.0,1.0,46,30.34,10.0,WSW,13.8,-,N/A,,Clear,250,2013-01-04 06:53:00